FW9830 Weather Reports


Display with metric or nautical units.
time (UTC)temp
F
wind
direction
speed
MPH
gust
MPH
rain 1hr
in
rain 24hr
in
rain mn
in
humidity
%
barometer
mb
20260504050502 56 240 5.0 5.0 0.00 0.00 0.00 67 1004.5
20260504045959 55 255 5.0 6.0 0.00 0.00 0.00 67 1004.4
20260504045455 55 235 5.0 6.0 0.00 0.00 0.00 68 1004.5
20260504044951 56 267 4.0 7.0 0.00 0.00 0.00 65 1004.7
20260504044449 56 260 4.0 8.0 0.00 0.00 0.00 66 1004.6
20260504043946 55 277 4.0 5.0 0.00 0.00 0.00 67 1004.3
20260504043443 55 262 5.0 8.0 0.00 0.00 0.00 66 1004.4
20260504042941 56 247 5.0 6.0 0.00 0.00 0.00 65 1004.4
20260504042437 57 264 5.0 5.0 0.00 0.00 0.00 64 1004.1
20260504041934 56 273 4.0 5.0 0.00 0.00 0.00 65 1004.2
20260504041430 56 249 3.0 5.0 0.00 0.00 0.00 65 1004.3
20260504040926 56 260 5.0 5.0 0.00 0.00 0.00 65 1004.3
20260504040424 57 263 3.0 5.0 0.00 0.00 0.00 63 1004.3
20260504035920 57 247 4.0 6.0 0.00 0.00 0.00 63 1004.5
20260504035417 56 248 3.0 5.0 0.00 0.00 0.00 63 1004.3
20260504034914 57 244 5.0 7.0 0.00 0.00 0.00 60 1004.4
20260504034411 57 256 5.0 6.0 0.00 0.00 0.00 61 1004.5
20260504033908 57 286 0.0 6.0 0.00 0.00 0.00 62 1004.6
20260504033406 57 251 3.0 6.0 0.00 0.00 0.00 63 1004.6
20260504032903 57 249 5.0 7.0 0.00 0.00 0.00 62 1004.6
20260504032400 58 251 3.0 7.0 0.00 0.00 0.00 61 1004.8
20260504031856 58 243 3.0 5.0 0.00 0.00 0.00 59 1004.6
20260504031353 59 241 4.0 5.0 0.00 0.00 0.00 56 1004.6
20260504030849 59 242 3.0 5.0 0.00 0.00 0.00 55 1004.7
20260504030347 60 240 3.0 5.0 0.00 0.00 0.00 53 1004.9
20260504025843 60 249 4.0 5.0 0.00 0.00 0.00 53 1004.5
20260504025340 60 310 2.0 7.0 0.00 0.00 0.00 51 1004.5
20260504024837 61 305 5.0 7.0 0.00 0.00 0.00 51 1004.7
20260504024333 61 280 6.0 6.0 0.00 0.00 0.00 50 1004.6
20260504023830 60 275 2.0 4.0 0.00 0.00 0.00 52 1004.5
20260504023327 61 264 3.0 5.0 0.00 0.00 0.00 51 1004.7
20260504022822 61 290 3.0 8.0 0.00 0.00 0.00 50 1004.7
20260504022320 61 292 3.0 5.0 0.00 0.00 0.00 51 1004.6
20260504021816 60 266 3.0 6.0 0.00 0.00 0.00 52 1004.6
20260504021314 61 270 1.0 5.0 0.00 0.00 0.00 51 1004.4
20260504020810 62 312 6.0 8.0 0.00 0.00 0.00 50 1004.4
20260504020307 62 294 5.0 7.0 0.00 0.00 0.00 50 1004.4
20260504015803 62 289 5.0 7.0 0.00 0.00 0.00 49 1004.4
20260504015259 62 340 5.0 7.0 0.00 0.00 0.00 51 1004.3
20260504014755 62 267 3.0 7.0 0.00 0.00 0.00 50 1004.2
20260504014252 62 290 6.0 7.0 0.00 0.00 0.00 50 1004.2
20260504013750 62 307 4.0 7.0 0.00 0.00 0.00 50 1004.1
20260504013247 62 315 5.0 6.0 0.00 0.00 0.00 50 1004.3
20260504012743 62 296 5.0 7.0 0.00 0.00 0.00 50 1004.0
20260504012242 62 296 5.0 6.0 0.00 0.00 0.00 50 1004.2
20260504011738 62 304 4.0 5.0 0.00 0.00 0.00 51 1004.0
20260504011235 62 324 2.0 3.0 0.00 0.00 0.00 55 1004.1
20260504010731 61 309 2.0 5.0 0.00 0.00 0.00 58 1004.1
20260504010226 61 276 2.0 4.0 0.00 0.00 0.00 60 1004.1
20260504005724 62 285 2.0 5.0 0.00 0.00 0.00 60 1003.9
20260504005221 62 246 5.0 7.0 0.00 0.00 0.00 60 1003.9
20260504004718 62 248 4.0 6.0 0.00 0.00 0.00 61 1003.7
20260504004215 62 260 3.0 6.0 0.00 0.00 0.00 61 1003.9
20260504003712 63 251 5.0 8.0 0.00 0.00 0.00 60 1003.8
20260504003209 64 243 5.0 8.0 0.00 0.00 0.00 58 1003.9
20260504002706 64 249 7.0 9.0 0.00 0.00 0.00 57 1003.8
20260504002203 64 242 8.0 10.0 0.00 0.00 0.00 57 1003.8
20260504001701 64 246 8.0 12.0 0.00 0.00 0.00 56 1003.9
20260504001157 65 262 8.0 12.0 0.00 0.00 0.00 54 1003.7
20260504000654 66 250 10.0 13.0 0.00 0.00 0.00 53 1003.5
20260504000151 67 253 4.0 16.0 0.00 0.00 0.00 50 1003.5
20260503235649 67 235 11.0 13.0 0.00 0.00 0.00 50 1003.6
20260503235145 67 245 12.0 15.0 0.00 0.00 0.00 50 1003.5
20260503234644 67 241 16.0 18.0 0.00 0.00 0.00 48 1003.4
20260503234142 67 232 10.0 18.0 0.00 0.00 0.00 49 1003.4
20260503233638 66 229 13.0 18.0 0.00 0.00 0.00 49 1003.4
20260503233134 67 246 15.0 15.0 0.00 0.00 0.00 49 1003.5
20260503232631 67 242 11.0 16.0 0.00 0.00 0.00 50 1003.4
20260503232128 67 235 12.0 17.0 0.00 0.00 0.00 47 1003.6
20260503231626 67 232 9.0 20.0 0.00 0.00 0.00 49 1003.5
20260503231122 67 231 16.0 22.0 0.00 0.00 0.00 48 1003.3
20260503230619 67 231 20.0 26.0 0.00 0.00 0.00 47 1003.4
20260503230117 67 242 15.0 23.0 0.00 0.00 0.00 47 1003.5
20260503225614 68 225 11.0 17.0 0.00 0.00 0.00 48 1003.6
20260503225113 67 232 18.0 24.0 0.00 0.00 0.00 46 1003.6
20260503224611 66 226 17.0 25.0 0.00 0.00 0.00 47 1003.6
20260503224109 66 230 16.0 25.0 0.00 0.00 0.00 47 1003.7
20260503223607 67 223 11.0 20.0 0.00 0.00 0.00 48 1004.0
20260503223102 67 233 21.0 21.0 0.00 0.00 0.00 46 1003.8
20260503222600 68 232 20.0 20.0 0.00 0.00 0.00 47 1003.8
20260503222058 67 239 14.0 23.0 0.00 0.00 0.00 46 1003.7
20260503221556 67 229 24.0 26.0 0.00 0.00 0.00 46 1003.9
20260503221053 67 245 14.0 27.0 0.00 0.00 0.00 47 1003.8
20260503220549 67 233 16.0 21.0 0.00 0.00 0.00 48 1003.9
20260503220046 67 235 15.0 24.0 0.00 0.00 0.00 47 1004.0
20260503215543 68 226 16.0 20.0 0.00 0.00 0.00 47 1003.9
20260503215040 67 227 15.0 20.0 0.00 0.00 0.00 48 1004.0
20260503214539 68 232 18.0 21.0 0.00 0.00 0.00 48 1004.3
20260503214035 67 232 20.0 25.0 0.00 0.00 0.00 47 1004.1
20260503213533 67 247 20.0 22.0 0.00 0.00 0.00 48 1004.3
20260503213030 67 250 14.0 24.0 0.00 0.00 0.00 48 1004.2
20260503212527 67 234 18.0 25.0 0.00 0.00 0.00 48 1004.3
20260503212024 67 248 13.0 25.0 0.00 0.00 0.00 48 1004.3
20260503211521 67 223 14.0 25.0 0.00 0.00 0.00 47 1004.3
20260503211017 66 240 20.0 28.0 0.00 0.00 0.00 48 1004.3
20260503210514 67 240 20.0 24.0 0.00 0.00 0.00 49 1004.3
20260503210009 66 244 17.0 24.0 0.00 0.00 0.00 47 1004.4
20260503205506 66 233 14.0 28.0 0.00 0.00 0.00 49 1004.3
20260503205003 66 231 21.0 26.0 0.00 0.00 0.00 47 1004.8
20260503204500 66 237 20.0 24.0 0.00 0.00 0.00 48 1004.7
20260503203956 66 240 20.0 26.0 0.00 0.00 0.00 49 1004.8
20260503203454 66 236 22.0 24.0 0.00 0.00 0.00 48 1004.8
20260503202950 66 247 18.0 26.0 0.00 0.00 0.00 48 1004.9
20260503202449 65 243 16.0 24.0 0.00 0.00 0.00 49 1005.2
20260503201947 65 222 14.0 28.0 0.00 0.00 0.00 48 1004.9
20260503201444 65 226 14.0 25.0 0.00 0.00 0.00 49 1005.0
20260503200941 65 234 15.0 24.0 0.00 0.00 0.00 50 1005.1
20260503200438 65 238 22.0 27.0 0.00 0.00 0.00 49 1005.4
20260503195934 66 223 16.0 22.0 0.00 0.00 0.00 48 1005.2
20260503195432 65 224 14.0 29.0 0.00 0.00 0.00 48 1005.6
20260503194928 65 251 16.0 24.0 0.00 0.00 0.00 47 1005.5
20260503194425 64 233 21.0 29.0 0.00 0.00 0.00 48 1005.5
20260503193920 64 224 25.0 28.0 0.00 0.00 0.00 49 1005.4
20260503193416 65 243 16.0 24.0 0.00 0.00 0.00 50 1005.6
20260503192912 65 232 23.0 30.0 0.00 0.00 0.00 49 1005.7
20260503192408 64 237 15.0 26.0 0.00 0.00 0.00 49 1006.1
20260503191904 64 231 23.0 28.0 0.00 0.00 0.00 51 1006.1
20260503191402 64 235 17.0 26.0 0.00 0.00 0.00 51 1006.0
20260503190858 65 224 14.0 27.0 0.00 0.00 0.00 52 1006.0
20260503190355 64 245 15.0 34.0 0.00 0.00 0.00 52 1006.2
20260503185852 64 216 17.0 30.0 0.00 0.00 0.00 51 1006.3
20260503185348 65 235 12.0 28.0 0.00 0.00 0.00 53 1006.2
20260503184848 64 231 26.0 29.0 0.00 0.00 0.00 51 1006.2
20260503184344 64 234 17.0 27.0 0.00 0.00 0.00 51 1006.3
20260503183840 65 226 19.0 26.0 0.00 0.00 0.00 52 1006.4
20260503183338 64 225 19.0 29.0 0.00 0.00 0.00 50 1006.8
20260503182835 63 237 33.0 35.0 0.00 0.00 0.00 52 1006.8
20260503182334 62 223 22.0 33.0 0.00 0.00 0.00 53 1006.7
20260503181831 63 234 25.0 34.0 0.00 0.00 0.00 54 1006.8
20260503181328 62 240 17.0 27.0 0.00 0.00 0.00 57 1007.0
20260503180824 62 220 13.0 28.0 0.00 0.00 0.00 60 1007.3
20260503180322 62 237 13.0 25.0 0.00 0.00 0.00 61 1007.4
20260503175818 61 231 24.0 29.0 0.00 0.00 0.00 61 1007.5
20260503175316 61 222 17.0 30.0 0.00 0.00 0.00 60 1007.4
20260503174812 61 234 20.0 31.0 0.00 0.00 0.00 60 1007.5
20260503174310 60 231 21.0 32.0 0.00 0.00 0.00 62 1007.6
20260503173806 61 240 22.0 31.0 0.00 0.00 0.00 61 1007.7
20260503173301 61 242 17.0 33.0 0.00 0.00 0.00 62 1007.9
20260503172758 61 223 24.0 28.0 0.00 0.00 0.00 61 1007.7
20260503172256 60 221 18.0 30.0 0.00 0.00 0.00 61 1007.7
20260503171752 60 232 24.0 32.0 0.00 0.00 0.00 61 1007.8
20260503171249 60 239 23.0 34.0 0.00 0.00 0.00 62 1008.1
20260503170746 60 248 26.0 31.0 0.00 0.00 0.00 62 1007.9
20260503170243 59 225 25.0 35.0 0.00 0.00 0.00 62 1008.1
20260503160205 59 233 20.0 26.0 0.00 0.00 0.00 63 1008.7
20260503150635 58 240 22.0 28.0 0.00 0.00 0.00 61 1009.0
20260503150131 58 244 22.0 29.0 0.00 0.00 0.00 60 1009.2
20260503131025 51 229 14.0 20.0 0.00 0.00 0.00 66 1009.6
20260503130522 52 226 13.0 22.0 0.00 0.00 0.00 65 1009.9
20260503110407 50 244 7.0 12.0 0.00 0.00 0.00 63 1010.7
20260503090258 50 232 15.0 20.0 0.00 0.00 0.00 62 1011.5
20260503081225 51 233 16.0 17.0 0.00 0.00 0.00 60 1011.4
20260503080721 51 223 9.0 15.0 0.00 0.00 0.00 60 1011.6
20260503080218 51 241 13.0 16.0 0.00 0.00 0.00 61 1011.7
20260503072655 52 231 11.0 11.0 0.00 0.00 0.00 60 1011.8
20260503072151 52 230 9.0 12.0 0.00 0.00 0.00 59 1012.2
20260503071648 51 249 5.0 11.0 0.00 0.00 0.00 62 1012.0
20260503071145 51 247 5.0 10.0 0.00 0.00 0.00 63 1012.1
20260503070642 51 237 9.0 11.0 0.00 0.00 0.00 62 1012.0
20260503070140 51 225 8.0 11.0 0.00 0.00 0.00 63 1011.9
20260503060104 43 195 7.0 7.0 0.00 0.00 0.00 82 1012.6